Temp
51 51 50 51 52 52 52 52 52 51 51 52 52 52 51 49 48 47 48 50 49 49 50 49 50 51 50 50 49 50 48 49 46 50 50 50 50 50 51 51 52 53 54
52 51 50 51 51 52 52 52 52 51 52 52 52 52 51 50 48 47 48 49 49 49 49 49 49 51 49 50 49 49 49 49 48 47 48 48 49 50 51 50 49 51 52
52 51 50 50 51 51 52 52 52 52 52 52 52 52 51 50 49 48 48 49 50 50 48 48 48 48 49 49 49 49 49 50 50 49 47 48 48 49 50 51 51 51 51
52 50 50 50 51 51 51 52 51 52 52 52 52 52 52 51 50 50 49 49 49 50 48 48 48 48 49 50 51 48 49 48 49 48 47 47 47 48 50 47 48 50 50
52 50 51 51 51 51 51 52 52 52 52 52 52 53 52 52 52 51 50 49 50 49 48 48 48 53 54 53 51 49 48 48 48 47 47 46 46 48 47 49 48 50 50
51 51 52 51 51 51 51 51 51 52 52 51 51 51 51 53 50 51 51 49 49 48 49 48 48 50 50 51 52 54 52 48 47 47 46 46 47 47 49 47 46 48 47
52 52 52 52 52 52 52 51 52 52 51 50 51 51 51 53 48 48 50 48 47 48 49 48 47 49 49 49 50 52 52 52 52 48 47 47 46 48 47 47 48 48 48
52 53 53 53 52 52 52 53 53 52 51 51 51 51 50 51 48 48 48 47 47 49 50 48 47 47 49 49 48 49 49 51 51 52 50 50 50 49 48 49 49 50 50
53 52 53 54 53 54 52 52 53 52 51 51 51 50 50 50 47 47 48 47 47 48 49 49 49 47 47 47 47 46 48 50 51 51 51 50 48 48 49 49 48 48 48
54 54 54 55 55 54 53 53 53 52 51 51 52 50 49 49 46 46 48 48 46 46 47 49 49 48 45 45 46 46 45 48 47 50 51 51 49 50 50 50 48 47 47
55 55 56 56 55 54 53 53 53 51 51 51 49 48 49 48 48 45 44 48 46 45 45 48 49 46 45 44 44 47 46 46 49 49 50 50 51 51 50 51 50 49 48
54 55 56 55 55 54 52 52 53 51 51 49 48 48 48 47 45 44 43 43 45 44 45 47 49 44 44 44 47 44 44 47 48 48 49 48 49 52 53 50 49 50 50
53 54 55 54 54 52 51 52 51 50 49 48 48 48 48 48 48 44 43 43 44 47 48 47 45 44 44 46 45 45 46 46 46 46 47 46 48 49 50 52 52 51 52
51 53 53 52 51 51 51 51 51 50 49 48 48 47 46 46 48 48 49 49 47 49 48 49 48 47 45 47 47 49 48 48 46 45 45 48 48 51 51 49 49 52 49
50 50 50 51 51 51 51 52 52 53 51 50 48 48 46 47 49 46 46 49 49 47 45 50 48 48 48 48 46 47 48 47 46 44 45 45 46 46 46 49 49 47 48
49 50 50 50 50 51 51 51 48 45 44 43 44 47 48 45 43 43 42 41 41 41 48 48 48 48 48 47 47 46 48 47 48 47 45 45 44 45 46 46 46 46 47
49 49 50 50 51 51 51 51 51 51 44 43 41 42 43 45 42 42 42 42 41 45 48 46 46 47 46 47 47 46 45 46 46 47 46 44 44 45 44 45 45 46 45
50 46 51 52 52 53 53 52 52 51 51 51 44 44 40 41 42 42 40 43 48 48 48 48 46 46 46 46 44 44 45 46 46 45 46 46 44 43 44 43 44 43 44
52 51 51 52 52 52 53 52 52 52 51 51 51 45 43 41 40 40 40 48 47 48 47 46 46 48 47 46 45 47 46 45 44 44 44 43 44 42 42 44 43 38 39
54 50 48 52 53 53 54 53 53 52 51 50 51 49 47 46 47 48 49 47 47 47 48 48 47 47 46 46 46 46 47 46 44 42 42 41 42 43 42 43 44 43 42
54 53 43 52 52 53 53 54 54 54 51 50 48 46 39 50 49 48 47 47 47 48 47 47 47 48 48 47 46 46 46 45 42 42 41 40 41 41 43 43 43 44 44
54 54 53 52 53 53 54 55 53 53 53 50 48 46 37 50 48 48 47 48 48 46 46 46 46 47 47 46 45 45 44 42 41 39 39 39 39 40 42 42 42 44 44
53 54 54 53 54 49 54 55 53 53 52 50 51 51 50 48 48 48 48 49 48 48 48 48 47 45 44 43 43 41 40 39 38 37 36 36 37 37 39 40 39 40 41
54 54 55 54 55 55 54 54 53 46 49 49 49 48 49 48 48 47 48 49 49 49 48 45 44 43 42 40 40 40 39 38 38 37 35 33 34 34 36 39 41 41 40
55 54 53 54 54 55 55 52 51 51 50 48 48 48 47 47 47 47 47 47 47 48 44 43 42 42 40 40 39 38 35 32 35 32 37 35 33 33 35 37 40 40 41
55 55 55 56 54 55 54 53 51 51 49 50 48 48 47 45 47 46 46 46 45 44 43 42 41 40 39 39 37 33 33 32 34 31 35 36 35 35 35 37 39 40 41
MSLP
1021.47 1021.70 1022.15 1022.19 1022.21 1022.41 1022.53 1022.75 1022.80 1022.88 1022.80 1022.59 1022.46 1022.43 1022.40 1022.35 1022.24 1021.96 1021.66 1021.30 1020.98 1020.61 1020.11 1019.74 1019.24 1018.91 1018.45 1017.94 1017.44 1016.97 1016.46 1016.16 1015.71 1015.25 1015.07 1015.04 1014.83 1014.43 1014.10 1013.38 1013.28 1012.89 1012.58
1021.12 1021.41 1021.90 1021.99 1022.13 1022.22 1022.31 1022.53 1022.56 1022.80 1022.67 1022.44 1022.31 1022.27 1022.23 1022.21 1022.17 1021.95 1021.60 1021.24 1020.90 1020.54 1020.14 1019.67 1019.26 1018.86 1018.39 1017.90 1017.34 1016.76 1016.15 1015.70 1015.45 1015.25 1015.06 1015.07 1015.17 1014.92 1014.52 1014.11 1013.64 1013.48 1013.29
1020.87 1021.25 1021.79 1021.83 1022.00 1022.04 1022.26 1022.52 1022.52 1022.62 1022.43 1022.22 1022.10 1022.08 1022.03 1022.09 1022.02 1021.74 1021.45 1021.08 1020.76 1020.49 1020.18 1019.76 1019.39 1018.95 1018.34 1017.84 1017.27 1016.60 1015.77 1015.24 1015.14 1015.13 1015.05 1015.10 1014.85 1014.87 1014.75 1014.49 1014.23 1014.20 1014.03
1020.64 1021.18 1021.57 1021.59 1021.69 1021.80 1022.15 1022.41 1022.44 1022.40 1022.33 1022.19 1021.99 1021.87 1021.88 1021.88 1021.86 1021.55 1021.20 1020.95 1020.57 1020.36 1020.15 1019.78 1019.43 1019.01 1018.44 1017.79 1017.22 1016.73 1015.99 1015.33 1015.11 1015.22 1015.35 1015.34 1015.18 1015.03 1014.83 1014.78 1014.55 1014.46 1014.14
1020.42 1021.07 1021.25 1021.29 1021.42 1021.79 1022.09 1022.24 1022.18 1022.06 1021.99 1021.98 1021.87 1021.73 1021.68 1021.70 1021.66 1021.40 1021.07 1020.90 1020.60 1020.33 1020.04 1019.75 1019.36 1018.88 1018.36 1017.85 1017.32 1016.89 1016.36 1015.93 1015.65 1015.56 1015.57 1015.46 1015.26 1015.10 1015.04 1014.78 1014.54 1014.40 1014.51
1020.15 1020.68 1020.95 1021.20 1021.48 1021.68 1021.77 1021.88 1021.90 1021.74 1021.64 1021.75 1021.68 1021.65 1021.58 1021.47 1021.32 1021.27 1021.12 1020.92 1020.62 1020.29 1019.94 1019.66 1019.29 1018.84 1018.35 1017.87 1017.34 1016.97 1016.65 1016.22 1016.04 1015.87 1015.77 1015.60 1015.48 1015.50 1015.35 1015.18 1014.83 1014.54 1014.48
1019.84 1020.35 1020.54 1021.06 1021.22 1021.35 1021.47 1021.55 1021.50 1021.40 1021.48 1021.52 1021.45 1021.47 1021.35 1021.37 1021.41 1021.30 1021.09 1020.89 1020.62 1020.18 1019.88 1019.60 1019.30 1018.95 1018.50 1018.03 1017.55 1017.14 1016.78 1016.50 1016.18 1015.98 1015.85 1015.73 1015.54 1015.35 1015.33 1015.22 1015.03 1014.78 1014.54
1019.62 1019.89 1020.24 1020.76 1020.93 1021.04 1021.18 1021.10 1021.06 1021.13 1021.18 1021.31 1021.21 1021.26 1021.34 1021.35 1021.30 1021.17 1020.94 1020.77 1020.53 1020.10 1019.72 1019.52 1019.32 1019.01 1018.63 1018.17 1017.71 1017.25 1016.87 1016.50 1016.25 1015.93 1015.69 1015.57 1015.49 1015.43 1015.34 1015.22 1014.90 1014.77 1014.57
1019.11 1019.59 1019.96 1020.32 1020.51 1020.73 1020.89 1020.82 1020.74 1020.92 1021.00 1021.03 1021.08 1021.17 1021.20 1021.22 1021.20 1021.04 1020.84 1020.71 1020.46 1020.13 1019.76 1019.43 1019.21 1018.95 1018.63 1018.25 1017.90 1017.49 1016.96 1016.46 1016.21 1015.84 1015.59 1015.42 1015.27 1015.21 1015.19 1015.07 1014.87 1014.75 1014.52
1018.70 1019.19 1019.61 1019.84 1020.01 1020.20 1020.30 1020.47 1020.53 1020.70 1020.75 1020.84 1020.90 1021.07 1021.08 1021.17 1021.17 1021.09 1020.97 1020.80 1020.45 1020.16 1019.73 1019.33 1019.02 1018.88 1018.65 1018.31 1018.05 1017.79 1017.29 1016.76 1016.41 1015.89 1015.56 1015.43 1015.25 1015.13 1015.05 1015.03 1014.88 1014.75 1014.61
1018.32 1018.93 1019.30 1019.47 1019.66 1019.88 1020.12 1020.32 1020.42 1020.51 1020.57 1020.75 1020.97 1021.02 1021.05 1021.14 1021.16 1021.08 1020.95 1020.78 1020.53 1020.20 1019.81 1019.31 1018.99 1018.74 1018.58 1018.40 1018.15 1017.91 1017.61 1017.11 1016.47 1016.07 1015.75 1015.54 1015.39 1015.27 1015.00 1014.77 1014.75 1014.68 1014.53
1018.24 1018.71 1018.92 1019.16 1019.49 1019.72 1019.97 1020.22 1020.28 1020.45 1020.52 1020.72 1020.89 1021.01 1021.12 1021.14 1021.12 1021.04 1020.89 1020.67 1020.39 1020.19 1019.72 1019.34 1019.00 1018.69 1018.49 1018.30 1018.05 1017.80 1017.45 1016.99 1016.57 1016.18 1015.90 1015.62 1015.38 1015.15 1014.96 1014.75 1014.66 1014.56 1014.41
1018.15 1018.51 1018.78 1019.11 1019.34 1019.58 1019.99 1020.15 1020.32 1020.41 1020.47 1020.66 1020.83 1020.97 1021.01 1021.11 1021.06 1020.94 1020.73 1020.46 1020.08 1019.85 1019.54 1019.22 1018.88 1018.60 1018.37 1018.14 1017.88 1017.70 1017.46 1017.14 1016.78 1016.42 1016.10 1015.78 1015.57 1015.24 1014.95 1014.68 1014.48 1014.40 1014.24
1018.01 1018.51 1018.89 1019.21 1019.47 1019.69 1019.86 1020.05 1020.14 1020.18 1020.31 1020.46 1020.61 1020.74 1020.86 1021.02 1020.95 1020.75 1020.54 1020.28 1019.86 1019.57 1019.31 1019.02 1018.74 1018.55 1018.34 1018.19 1017.85 1017.65 1017.53 1017.22 1017.02 1016.69 1016.18 1015.81 1015.51 1015.11 1014.82 1014.69 1014.50 1014.29 1014.20
1018.24 1018.70 1019.10 1019.35 1019.54 1019.64 1019.75 1019.75 1019.72 1019.60 1019.69 1019.76 1019.84 1020.19 1020.59 1020.65 1020.47 1020.34 1020.37 1020.26 1020.01 1019.66 1019.33 1018.99 1018.81 1018.50 1018.32 1018.12 1017.89 1017.67 1017.42 1017.12 1016.91 1016.64 1016.30 1015.89 1015.56 1015.18 1014.94 1014.68 1014.52 1014.39 1014.25
1018.54 1018.89 1019.10 1019.30 1019.39 1019.49 1019.50 1019.36 1019.10 1019.12 1019.19 1019.31 1019.50 1019.55 1019.84 1019.82 1019.93 1020.05 1020.11 1019.99 1019.69 1019.44 1019.31 1019.21 1019.01 1018.80 1018.52 1018.32 1018.17 1017.82 1017.48 1017.36 1017.04 1016.77 1016.40 1016.08 1015.69 1015.24 1014.99 1014.70 1014.54 1014.30 1014.24
1018.48 1018.85 1019.05 1019.14 1019.22 1019.26 1019.16 1019.11 1019.09 1018.94 1018.84 1018.89 1019.00 1018.97 1019.28 1019.42 1019.68 1019.81 1019.78 1019.62 1019.40 1019.27 1019.29 1019.17 1018.91 1018.64 1018.54 1018.40 1018.24 1018.04 1017.91 1017.70 1017.38 1016.91 1016.52 1016.15 1015.69 1015.34 1015.07 1014.73 1014.51 1014.35 1014.05
1018.43 1018.74 1018.85 1018.89 1018.98 1018.93 1018.87 1018.86 1018.95 1019.01 1019.01 1018.89 1018.84 1018.92 1019.09 1019.37 1019.46 1019.52 1019.54 1019.47 1019.35 1019.26 1019.23 1019.13 1018.96 1018.70 1018.55 1018.44 1018.18 1018.06 1017.92 1017.75 1017.53 1017.20 1016.75 1016.40 1016.17 1015.70 1015.29 1015.05 1014.85 1014.62 1014.17
1018.17 1018.45 1018.64 1018.77 1018.79 1018.69 1018.67 1018.78 1018.85 1018.88 1018.87 1018.71 1018.68 1018.81 1018.97 1019.14 1019.34 1019.51 1019.44 1019.42 1019.39 1019.29 1019.15 1018.93 1018.83 1018.52 1018.34 1018.26 1018.07 1017.81 1017.73 1017.67 1017.70 1017.43 1017.12 1016.81 1016.45 1016.15 1015.67 1015.31 1015.06 1014.88 1014.55
1017.94 1018.15 1018.49 1018.63 1018.61 1018.56 1018.61 1018.60 1018.65 1018.63 1018.48 1018.46 1018.65 1018.86 1019.10 1019.24 1019.22 1019.25 1019.38 1019.46 1019.40 1019.29 1019.04 1018.81 1018.59 1018.41 1018.24 1018.12 1017.88 1017.69 1017.58 1017.57 1017.56 1017.50 1017.33 1017.16 1016.76 1016.33 1015.87 1015.51 1015.18 1015.01 1014.70
1017.81 1018.13 1018.43 1018.62 1018.54 1018.48 1018.45 1018.42 1018.32 1018.23 1018.24 1018.53 1018.75 1018.86 1018.79 1018.90 1019.15 1019.27 1019.34 1019.39 1019.34 1019.19 1019.07 1018.75 1018.43 1018.21 1018.03 1017.92 1017.84 1017.70 1017.77 1017.76 1017.80 1017.67 1017.51 1017.34 1016.99 1016.43 1015.94 1015.55 1015.26 1015.02 1014.73
1017.72 1017.95 1018.06 1018.24 1018.24 1018.17 1018.08 1017.97 1018.01 1018.06 1018.24 1018.48 1018.67 1018.95 1018.98 1019.06 1019.29 1019.41 1019.44 1019.36 1019.22 1019.04 1018.88 1018.62 1018.29 1018.12 1018.09 1018.17 1018.02 1017.98 1017.99 1018.00 1018.01 1017.86 1017.59 1017.34 1017.05 1016.60 1016.07 1015.60 1015.26 1014.92 1014.64
1017.76 1017.85 1017.88 1017.90 1017.84 1017.74 1017.78 1017.78 1017.73 1017.74 1017.78 1018.12 1018.48 1018.66 1018.81 1018.98 1019.15 1019.19 1019.17 1019.08 1018.85 1018.59 1018.47 1018.39 1018.36 1018.43 1018.57 1018.63 1018.61 1018.59 1018.53 1018.44 1018.36 1018.13 1017.74 1017.34 1016.98 1016.64 1016.23 1015.66 1015.27 1014.92 1014.56
1017.61 1017.67 1017.58 1017.44 1017.43 1017.54 1017.46 1017.30 1017.26 1017.48 1017.70 1017.96 1018.13 1018.31 1018.78 1019.24 1019.34 1019.37 1019.25 1019.05 1018.84 1018.51 1018.53 1018.69 1018.78 1018.84 1018.95 1018.97 1018.90 1018.81 1018.74 1018.56 1018.29 1017.98 1017.84 1017.52 1017.07 1016.66 1016.27 1015.66 1015.09 1014.71 1014.42
1017.45 1017.36 1017.23 1017.16 1017.10 1017.10 1017.24 1017.15 1017.22 1017.32 1017.34 1017.65 1018.27 1018.80 1019.20 1019.49 1019.70 1019.64 1019.51 1019.34 1019.11 1018.81 1018.89 1019.12 1019.33 1019.34 1019.29 1019.19 1019.05 1018.88 1018.69 1018.41 1018.05 1017.87 1017.41 1017.20 1016.89 1016.58 1016.15 1015.60 1014.96 1014.50 1014.16
1017.23 1017.15 1017.13 1017.16 1017.01 1016.86 1016.87 1017.04 1017.32 1017.98 1018.40 1018.66 1019.20 1019.53 1019.60 1019.79 1019.69 1019.70 1019.70 1019.58 1019.49 1019.49 1019.55 1019.58 1019.68 1019.71 1019.58 1019.42 1019.22 1018.97 1018.56 1018.17 1017.77 1017.52 1017.20 1016.79 1016.43 1016.06 1015.72 1015.19 1014.63 1014.20 1013.82
Wind_Speed
7 5 5 5 4 4 3 1 2 2 4 4 3 3 3 4 5 6 6 6 7 7 6 6 7 6 5 5 4 5 4 3 4 2 1 2 4 4 5 7 7 7 8
7 6 5 5 4 3 2 2 2 3 4 3 3 3 3 3 4 6 7 7 7 7 7 7 7 7 8 7 5 8 6 5 3 5 0 2 1 2 5 6 6 6 6
7 6 5 5 4 3 2 3 3 3 4 4 3 3 3 4 5 5 5 7 7 5 6 7 7 8 9 7 7 7 7 4 3 2 0 1 2 2 2 2 5 6 5
7 5 6 5 5 3 3 3 4 3 4 4 4 4 3 3 4 6 7 7 5 4 5 6 7 7 8 8 7 7 8 5 2 2 1 0 1 1 1 1 3 4 6
7 6 6 5 3 3 3 3 4 4 4 4 5 4 4 3 3 5 6 6 7 6 4 6 6 10 13 11 5 5 6 5 3 2 1 1 2 2 2 2 3 2 2
7 7 5 4 3 4 4 4 4 4 3 4 5 4 4 3 5 9 8 5 6 5 6 6 7 9 10 13 12 9 6 4 3 2 2 2 2 1 2 1 2 3 2
8 6 5 5 5 5 4 4 4 4 2 4 5 4 5 3 5 6 9 5 6 5 4 5 6 6 9 8 10 9 7 7 4 1 2 1 2 1 1 2 2 1 2
8 5 5 5 5 4 4 5 4 3 4 3 4 4 3 2 5 5 6 4 5 5 4 4 4 6 8 9 8 7 6 5 6 4 2 2 1 1 1 2 2 2 1
8 6 6 6 5 5 5 5 3 3 2 3 3 3 3 3 5 6 4 4 5 6 5 5 3 4 8 9 6 8 8 6 7 8 5 4 2 2 3 3 2 1 1
8 8 7 6 5 5 5 4 2 2 2 3 3 2 2 2 5 6 5 3 5 5 7 6 6 4 7 8 4 5 7 7 8 8 3 3 3 3 4 3 2 2 1
7 5 5 5 5 5 3 2 1 2 2 1 2 2 2 2 3 6 6 3 3 5 5 6 4 7 5 6 6 5 5 8 8 4 3 3 2 2 2 1 2 2 1
6 5 5 4 4 3 3 2 1 2 1 1 1 1 1 1 4 5 6 5 5 3 5 4 5 8 6 6 5 7 8 7 4 4 3 2 3 3 3 2 3 2 2
5 5 4 5 4 4 3 3 1 2 1 1 1 1 1 2 3 5 7 7 6 3 4 6 8 6 7 5 6 8 6 4 5 4 5 2 3 3 4 4 2 2 3
5 4 4 4 4 2 2 2 3 3 3 3 3 3 2 2 2 2 3 5 5 3 4 4 4 4 4 4 4 4 3 4 3 5 4 5 3 3 3 1 1 1 1
5 4 4 2 2 2 3 3 4 4 5 4 5 3 3 3 3 4 1 4 5 5 6 2 3 3 4 5 5 4 3 3 3 3 4 4 4 3 2 2 1 1 2
5 3 2 2 2 2 3 3 7 7 8 5 4 6 5 6 7 6 4 5 5 5 2 3 5 5 5 5 5 5 5 7 6 5 3 4 4 4 4 2 1 2 2
5 4 3 3 2 3 3 3 3 2 2 5 8 9 8 6 8 6 4 5 5 5 2 3 4 4 4 4 4 3 5 5 6 5 5 4 5 3 4 4 3 3 2
4 6 3 2 2 3 3 1 0 1 3 3 4 5 7 5 7 4 2 1 3 3 2 4 5 5 4 4 4 2 4 5 5 5 6 7 5 6 2 4 5 4 4
4 3 3 2 2 3 2 1 2 2 3 3 1 1 3 5 3 1 1 1 1 3 4 4 4 5 4 4 3 4 4 3 3 5 6 6 6 5 6 3 2 4 4
4 6 4 2 2 2 2 2 2 3 3 3 2 1 1 1 0 0 2 1 2 3 4 5 4 4 4 4 5 4 3 3 4 5 6 6 7 6 5 5 4 5 4
2 3 3 2 2 3 2 2 3 3 2 1 1 1 4 1 1 1 1 1 2 3 5 5 5 5 5 4 4 3 2 4 4 5 6 6 7 7 6 6 5 5 5
3 3 3 3 3 3 3 3 3 3 1 2 2 1 3 3 2 1 1 2 3 3 3 4 4 4 4 4 4 4 4 5 6 6 7 7 6 6 6 5 6 5 5
3 3 2 3 3 4 3 3 2 3 3 4 4 3 2 2 2 1 2 3 3 3 3 3 4 3 3 4 4 4 5 5 6 6 7 7 6 6 6 6 5 5 6
2 3 4 4 3 3 4 4 4 3 4 4 5 4 1 1 1 3 4 4 5 4 3 3 3 5 4 4 4 5 4 5 5 6 7 6 6 6 6 6 6 6 6
3 4 4 4 5 4 3 3 3 4 5 4 2 2 2 2 2 4 4 4 5 5 4 4 4 5 6 8 8 9 8 7 7 6 5 6 8 9 7 6 7 6 7
4 3 3 4 4 4 4 3 1 5 6 3 2 3 4 2 2 3 4 5 5 4 4 4 5 7 9 7 8 8 8 9 9 8 6 5 6 6 5 7 9 6 7
Wind_Direction
183 171 179 188 181 166 169 182 252 286 297 308 312 330 342 346 344 339 333 322 330 324 333 335 327 327 320 324 308 304 282 270 265 272 67 1 6 354 355 16 17 16 23
179 163 189 186 175 157 162 232 260 284 294 297 304 308 319 339 344 342 334 331 330 327 334 339 345 342 337 327 322 314 298 271 256 286 83 22 25 7 358 10 27 24 1
166 168 191 196 185 166 196 252 264 277 274 304 306 285 306 341 336 329 323 326 326 330 334 341 330 338 336 332 323 328 313 290 228 266 75 354 1 5 349 18 34 23 21
165 171 195 196 190 180 213 250 267 271 277 293 290 283 294 310 324 327 337 331 316 336 345 344 332 329 324 330 333 333 337 346 46 88 64 4 327 293 33 340 38 39 35
166 183 207 194 177 188 227 253 268 275 265 276 290 297 287 284 308 321 338 337 330 338 331 352 337 333 347 347 331 333 350 358 27 22 18 324 340 350 350 339 349 352 37
167 202 193 166 183 209 224 240 261 276 276 279 283 297 295 269 295 348 356 335 333 316 333 340 340 341 343 350 355 3 8 6 360 8 342 339 343 324 311 311 326 3 358
176 198 180 187 198 220 231 240 256 264 262 279 285 286 282 314 343 344 354 342 326 319 313 336 340 341 342 346 348 342 357 357 2 301 331 316 306 292 314 310 334 326 323
183 187 191 193 206 215 229 239 248 245 256 279 281 284 307 312 330 344 344 338 332 325 322 320 328 334 344 349 345 349 340 334 342 319 289 279 258 238 254 289 296 313 277
180 194 206 200 209 206 230 240 231 231 244 259 277 310 309 313 330 339 349 341 331 323 333 327 315 328 335 349 356 350 343 347 341 334 286 274 213 230 273 303 342 299 310
181 204 203 206 213 214 216 244 227 232 251 280 305 341 336 336 342 8 14 342 334 329 326 323 330 328 334 347 358 350 344 340 340 336 341 296 248 241 269 262 286 283 260
184 186 205 204 214 198 180 219 221 258 283 323 2 8 52 21 349 4 6 339 321 315 316 323 326 327 338 356 357 354 320 310 322 326 325 327 355 294 274 276 297 317 296
160 191 210 189 176 160 178 245 253 245 178 20 35 32 22 3 345 337 334 325 319 306 313 313 316 322 322 335 360 345 345 342 340 336 332 324 317 304 306 310 284 263 237
166 204 186 164 163 149 176 233 241 223 174 207 199 260 293 281 316 322 308 316 323 313 292 304 315 354 348 324 337 356 354 353 348 342 328 310 302 284 294 284 232 263 277
174 158 137 158 144 161 201 228 234 222 215 208 227 236 228 264 276 283 330 335 333 332 339 324 333 338 338 317 335 339 339 3 344 340 319 313 307 316 309 290 286 281 277
125 127 144 148 178 221 245 238 228 224 197 207 218 191 188 226 231 212 257 333 330 314 319 338 341 347 346 347 347 343 339 349 353 340 335 326 326 319 310 303 287 285 252
127 143 169 190 206 227 253 277 247 245 257 258 215 182 206 222 216 216 243 299 324 342 333 346 335 337 348 355 348 345 358 349 343 338 326 334 322 312 309 304 283 263 278
149 171 193 212 221 243 249 245 302 292 208 218 220 212 191 197 210 227 250 316 12 7 358 333 319 327 337 333 327 348 342 345 340 351 339 332 319 321 343 316 276 262 263
161 184 196 212 246 260 249 217 226 281 303 303 223 210 224 232 219 212 286 309 353 12 339 329 326 328 340 323 306 315 332 343 349 349 358 353 351 340 351 3 1 350 332
162 184 199 229 257 247 250 267 247 272 261 258 276 123 195 224 291 339 157 42 342 335 331 317 320 320 321 313 307 304 292 319 336 346 356 349 339 337 334 334 332 327 340
186 192 182 204 270 259 242 273 265 261 262 260 307 18 107 82 236 13 67 48 354 319 319 316 308 306 313 311 314 318 302 322 345 345 345 338 330 321 309 312 327 329 323
184 161 192 224 260 291 297 285 272 289 280 1 103 213 192 132 93 57 28 350 307 310 314 309 309 312 312 324 329 338 342 344 347 338 333 331 326 315 311 307 305 305 302
172 189 197 224 243 259 253 272 285 281 224 158 163 124 138 92 105 60 333 303 307 291 286 286 296 324 353 0 11 12 1 350 339 333 324 319 315 309 304 297 299 302 298
168 190 226 244 244 256 265 272 257 223 186 167 170 164 165 170 177 217 263 303 293 291 305 331 354 43 43 39 32 21 355 342 330 322 315 313 309 305 305 298 297 297 295
153 213 241 247 269 288 253 247 220 201 180 176 184 191 136 36 290 290 289 303 320 329 10 31 52 61 39 20 8 1 350 339 323 315 318 308 308 306 296 290 286 286 287
221 243 245 248 257 272 286 249 214 210 189 184 140 105 96 61 322 329 333 326 325 336 56 67 51 35 25 6 359 350 339 317 324 313 303 296 297 298 289 287 287 288 288
250 263 287 296 282 258 249 230 236 53 64 77 51 33 58 346 342 350 352 12 18 37 54 55 47 27 10 358 352 340 330 330 329 320 311 289 291 289 286 287 289 288 284